Home > Weather > Maribor > Past weeks

Flag for Slovenia Past Weather in Maribor, Slovenia — Yesterday and Last 2 Weeks

Now
70 °F

Mild.


Feels Like: 72 °F
Forecast: 67 / 88 °F
Wind: 2 mph from North

Location: Maribor / Slivnica

Current Time: Jul 31, 2016 at 12:35:26 AM

Latest Report: Jul 30, 2016 at 11:00 PM


Visibility: 25 mi

Pressure: 29.95 "Hg

Humidity: 78%

Dew Point: 63 °F

Location of MariborLocation

Past Weather in Maribor — Graph

°F

Maribor Temperature Yesterday

Maximum temperature yesterday: 88 °F (at 5:00 PM)
Minimum temperature yesterday: 63 °F (at 6:00 AM)
Average temperature yesterday: 75 °F

High & Low Weather Summary for the Past Weeks

 TemperatureHumidityPressure
High88 °F (Jul 30, 5:00 PM)97% (Jul 29, 5:00 AM)30.17 "Hg (Jul 29, 5:00 AM)
Low55 °F (Jul 17, 5:00 AM)39% (Jul 30, 5:00 PM)29.88 "Hg (Jul 30, 6:00 PM)
Average72 °F72%30.01 "Hg
* Reported Jul 15 11:00 PM — Jul 30 11:00 PM, Maribor, Weather by CustomWeather, © 2016

Note: Actual official high and low records may vary slightly from our data, if they occured in-between our weather recording intervals... More about our weather records

Advertising

Maribor Weather History for the Previous 24 Hours

Scroll right to see more
 ConditionsComfort  
Time TempWeatherWind HumidityBarometerVisibility
11:00 PM
Sat, Jul 30
70 °FMild.2 mph78%29.95 "Hg25 mi
10:00 PM73 °FPassing clouds.3 mph72%29.93 "Hg12 mi
9:00 PM76 °FPassing clouds.2 mph69%29.91 "Hg12 mi
8:00 PM80 °FScattered clouds.1 mph60%29.90 "Hg12 mi
7:00 PMN/AScattered clouds.N/AN/AN/A12 mi
6:00 PM87 °FPassing clouds.6 mph40%29.88 "Hg12 mi
5:00 PM88 °FPassing clouds.6 mph39%29.88 "Hg12 mi
4:00 PM87 °FWarm.6 mph40%29.88 "Hg25 mi
3:00 PM87 °FPassing clouds.5 mph41%29.90 "Hg12 mi
2:00 PM87 °FPassing clouds.5 mph43%29.92 "Hg12 mi
1:00 PM85 °FPassing clouds.5 mph46%29.94 "Hg12 mi
12:00 PM83 °FScattered clouds.3 mph55%29.95 "Hg25 mi
11:00 AM80 °FScattered clouds.2 mph62%29.96 "Hg25 mi
10:00 AM77 °FScattered clouds.2 mph64%29.97 "Hg19 mi
9:00 AM74 °FPassing clouds.1 mph74%29.98 "Hg19 mi
8:00 AM71 °FPassing clouds.1 mph79%29.98 "Hg19 mi
7:00 AM67 °FPassing clouds.1 mph87%29.99 "Hg12 mi
6:00 AM63 °FPassing clouds.N/A94%30.00 "Hg6 mi
5:00 AM64 °FMild.1 mph90%29.99 "Hg14 mi
4:00 AM63 °FMild.1 mph93%29.99 "Hg11 mi
3:00 AM64 °FMild.1 mph92%30.00 "Hg11 mi
2:00 AM65 °FMild.1 mph91%29.99 "Hg11 mi
1:00 AM66 °FMild.1 mph89%29.99 "Hg10 mi
12:00 AM69 °FMild.1 mph83%29.97 "Hg16 mi
Weather by CustomWeather, © 2016

See weather overviewHow to use our weather pages